| time (UTC) | temp C | wind direction | speed KPH | gust KPH | rain 1hr cm | rain 24hr cm | rain mn cm | humidity % | barometer mb |
| 20260506124531 | 28 | 0.0 | 0.0 | 0.00 | 0.00 | 0.00 | 799.5 | ||
| 20260506123018 | 27 | 0.0 | 0.0 | 0.00 | 0.00 | 0.00 | 799.6 | ||
| 20260506121554 | 26 | 0.0 | 0.0 | 0.00 | 0.00 | 0.00 | 11 | 799.6 | |
| 20260506120045 | 26 | 0.0 | 0.0 | 0.00 | 0.00 | 0.00 | 11 | 799.7 | |
| 20260506114530 | 26 | 0.0 | 0.0 | 0.00 | 0.00 | 0.00 | 13 | 799.7 | |
| 20260506113154 | 26 | 0.0 | 0.0 | 0.00 | 0.00 | 0.00 | 16 | 799.0 | |
| 20260506111642 | 25 | 0.0 | 0.0 | 0.00 | 0.00 | 0.00 | 17 | 799.2 | |
| 20260506110045 | 26 | 0.0 | 0.0 | 0.00 | 0.00 | 0.00 | 18 | 800.1 | |
| 20260506104531 | 25 | 0.0 | 0.0 | 0.00 | 0.00 | 0.00 | 21 | 798.5 | |
| 20260506103018 | 25 | 0.0 | 0.0 | 0.00 | 0.00 | 0.00 | 21 | 798.7 | |
| 20260506101555 | 25 | 0.0 | 0.0 | 0.00 | 0.00 | 0.00 | 20 | 798.0 | |
| 20260506100045 | 25 | 0.0 | 0.0 | 0.00 | 0.00 | 0.00 | 20 | 798.1 | |
| 20260506094530 | 24 | 0.0 | 0.0 | 0.00 | 0.00 | 0.00 | 22 | 797.5 | |
| 20260506093018 | 23 | 0.0 | 0.0 | 0.00 | 0.00 | 0.00 | 25 | 796.8 | |
| 20260506091554 | 23 | 0.0 | 0.0 | 0.00 | 0.00 | 0.00 | 26 | 797.0 | |
| 20260506090045 | 22 | 0.0 | 0.0 | 0.00 | 0.00 | 0.00 | 29 | 797.0 | |
| 20260506084530 | 22 | 0.0 | 0.0 | 0.00 | 0.00 | 0.00 | 29 | 796.3 | |
| 20260506083018 | 22 | 0.0 | 0.0 | 0.00 | 0.00 | 0.00 | 34 | 796.4 | |
| 20260506081554 | 21 | 0.0 | 0.0 | 0.00 | 0.00 | 0.00 | 34 | 796.5 | |
| 20260506073018 | 20 | 0.0 | 0.0 | 0.00 | 0.00 | 0.00 | 43 | 795.9 | |
| 20260506071554 | 19 | 0.0 | 0.0 | 0.00 | 0.00 | 0.00 | 45 | 794.4 | |
| 20260506061554 | 18 | 0.0 | 0.0 | 0.00 | 0.00 | 0.00 | 50 | 790.9 | |
| 20260506044530 | 15 | 0.0 | 0.0 | 0.00 | 0.00 | 0.00 | 66 | 787.2 | |
| 20260506043106 | -17 | 0.0 | 0.0 | 0.00 | 0.00 | 0.00 | 785.6 | ||
| 20260506041606 | -17 | 0.0 | 0.0 | 0.00 | 0.00 | 0.00 | 784.7 | ||
| 20260506040108 | -17 | 0.0 | 0.0 | 0.00 | 0.00 | 0.00 | 785.5 | ||
| 20260506034607 | -17 | 0.0 | 0.0 | 0.00 | 0.00 | 0.00 | 787.0 | ||
| 20260506033106 | -17 | 0.0 | 0.0 | 0.00 | 0.00 | 0.00 | 786.9 | ||
| 20260506031607 | -17 | 0.0 | 0.0 | 0.00 | 0.00 | 0.00 | 787.6 | ||
| 20260506030109 | -17 | 0.0 | 0.0 | 0.00 | 0.00 | 0.00 | 787.7 | ||
| 20260506024607 | -17 | 0.0 | 0.0 | 0.00 | 0.00 | 0.00 | 790.8 | ||
| 20260506023107 | -17 | 0.0 | 0.0 | 0.00 | 0.00 | 0.00 | 791.5 | ||
| 20260506021607 | -17 | 0.0 | 0.0 | 0.00 | 0.00 | 0.00 | 793.0 | ||
| 20260506020109 | -17 | 0.0 | 0.0 | 0.00 | 0.00 | 0.00 | 793.7 | ||
| 20260506014606 | -17 | 0.0 | 0.0 | 0.00 | 0.00 | 0.00 | 795.9 | ||
| 20260506013106 | -17 | 0.0 | 0.0 | 0.00 | 0.00 | 0.00 | 797.5 | ||
| 20260506011607 | -17 | 0.0 | 0.0 | 0.00 | 0.00 | 0.00 | 799.0 | ||
| 20260506010109 | 16 | 0.0 | 0.0 | 0.00 | 0.00 | 0.00 | 57 | 798.9 | |
| 20260506004618 | 16 | 0.0 | 0.0 | 0.00 | 0.00 | 0.00 | 55 | 799.6 | |
| 20260506003107 | 16 | 0.0 | 0.0 | 0.00 | 0.00 | 0.00 | 53 | 799.5 | |
| 20260506001554 | 17 | 0.0 | 0.0 | 0.00 | 0.00 | 0.00 | 51 | 800.1 | |
| 20260506000310 | 17 | 0.0 | 0.0 | 0.00 | 0.00 | 0.00 | 49 | 800.1 | |
| 20260505234529 | 17 | 0.0 | 0.0 | 0.00 | 0.00 | 0.00 | 49 | 800.0 | |
| 20260505233018 | 17 | 0.0 | 0.0 | 0.00 | 0.00 | 0.00 | 47 | 799.1 | |
| 20260505231554 | 17 | 0.0 | 0.0 | 0.00 | 0.00 | 0.00 | 46 | 799.1 | |
| 20260505230044 | 17 | 0.0 | 0.0 | 0.00 | 0.00 | 0.00 | 46 | 799.9 | |
| 20260505224530 | 17 | 0.0 | 0.0 | 0.00 | 0.00 | 0.00 | 45 | 798.9 | |
| 20260505223106 | 17 | 0.0 | 0.0 | 0.00 | 0.00 | 0.00 | 44 | 798.8 | |
| 20260505221554 | 17 | 0.0 | 0.0 | 0.00 | 0.00 | 0.00 | 43 | 799.5 | |
| 20260505220132 | 17 | 0.0 | 0.0 | 0.00 | 0.00 | 0.00 | 42 | 798.7 | |
| 20260505214529 | 17 | 0.0 | 0.0 | 0.00 | 0.00 | 0.00 | 41 | 799.4 | |
| 20260505213018 | 18 | 0.0 | 0.0 | 0.00 | 0.00 | 0.00 | 40 | 798.6 | |
| 20260505211554 | 18 | 0.0 | 0.0 | 0.00 | 0.00 | 0.00 | 38 | 798.6 | |
| 20260505210044 | 18 | 0.0 | 0.0 | 0.00 | 0.00 | 0.00 | 36 | 798.5 | |
| 20260505204617 | 19 | 0.0 | 0.0 | 0.00 | 0.00 | 0.00 | 32 | 798.4 | |
| 20260505203018 | 20 | 0.0 | 0.0 | 0.00 | 0.00 | 0.00 | 27 | 798.2 | |
| 20260505201553 | 20 | 0.0 | 0.0 | 0.00 | 0.00 | 0.00 | 21 | 798.8 | |
| 20260505200058 | 20 | 0.0 | 0.0 | 0.00 | 0.00 | 0.00 | 19 | 797.2 | |
| 20260505194617 | 19 | 0.0 | 0.0 | 0.00 | 0.00 | 0.00 | 21 | 797.0 | |
| 20260505193018 | 19 | 0.0 | 0.0 | 0.00 | 0.00 | 0.00 | 23 | 797.0 | |
| 20260505191554 | 20 | 0.0 | 0.0 | 0.00 | 0.00 | 0.00 | 22 | 797.8 | |
| 20260505190044 | 20 | 0.0 | 0.0 | 0.00 | 0.00 | 0.00 | 18 | 797.0 | |
| 20260505184529 | 21 | 0.0 | 0.0 | 0.00 | 0.00 | 0.00 | 16 | 796.1 | |
| 20260505183018 | 22 | 0.0 | 0.0 | 0.00 | 0.00 | 0.00 | 13 | 796.1 | |
| 20260505181554 | 22 | 0.0 | 0.0 | 0.00 | 0.00 | 0.00 | 11 | 795.3 | |
| 20260505180044 | 23 | 0.0 | 0.0 | 0.00 | 0.00 | 0.00 | 11 | 794.5 | |
| 20260505174529 | 23 | 0.0 | 0.0 | 0.00 | 0.00 | 0.00 | 794.6 | ||
| 20260505173154 | 24 | 0.0 | 0.0 | 0.00 | 0.00 | 0.00 | 794.6 | ||
| 20260505171643 | 25 | 0.0 | 0.0 | 0.00 | 0.00 | 0.00 | 792.9 | ||
| 20260505170045 | 25 | 0.0 | 0.0 | 0.00 | 0.00 | 0.00 | 790.7 | ||
| 20260505164535 | 26 | 0.0 | 0.0 | 0.00 | 0.00 | 0.00 | 789.1 | ||
| 20260505163242 | 26 | 0.0 | 0.0 | 0.00 | 0.00 | 0.00 | 785.5 | ||
| 20260505161554 | 26 | 0.0 | 0.0 | 0.00 | 0.00 | 0.00 | 784.1 | ||
| 20260505153018 | 27 | 0.0 | 0.0 | 0.00 | 0.00 | 0.00 | 784.8 | ||
| 20260505151554 | 27 | 0.0 | 0.0 | 0.00 | 0.00 | 0.00 | 782.5 |